Regional Weather Roundup
Issued by NWS Boston, MA

Home | Current Version | Previous Version | Text Only | Print | Product List | Glossary On
Versions: 1 2 3 4 5 6 7 8 9 10 11 12 13 14 15 16 17 18 19 20 21 22 23 24 25 26 27 28 29 30 31 32 33 34 35 36 37 38 39 40 41 42 43 44 45 46 47 48 49 50
000
ASUS41 KBOX 110010
RWRBOX

REGIONAL WEATHER ROUNDUP
NATIONAL WEATHER SERVICE TAUNTON MA
800 PM EDT THU JUL 10 2014

NOTE:  "FAIR" INDICATES FEW OR NO CLOUDS BELOW 12,000 FEET WITH NO
SIGNIFICANT WEATHER AND/OR OBSTRUCTIONS TO VISIBILITY.  THE FOLLOWING
OBSERVATION LOCATIONS DO NOT REPORT PRESENT WEATHER...PROVINCETOWN...
SMITHFIELD...BLOCK ISLAND...KEENE...AND OXFORD.

MAZALL-110100-
EASTERN MASSACHUSETTS

CITY           SKY/WX    TMP DP  RH WIND       PRES   REMARKS
BOSTON         PTCLDY    79  53  40 W8        30.11R
6HR MIN TEMP:  79; 6HR MAX TEMP:  82;

BEVERLY        CLEAR     75  58  55 SW3       30.10R
LAWRENCE       CLEAR     76  57  51 SW6       30.12R
BEDFORD        CLEAR     73  61  65 SW3       30.10R
BLUE HILL        N/A     73  57  57 NW6       30.13R
NORWOOD        CLEAR     77  57  50 CALM      30.11R
MARSHFIELD     PTCLDY    72  57  60 SE3       30.13R
PLYMOUTH       MOCLDY    74  60  61 S5        30.12R
TAUNTON        PTCLDY    74  65  73 CALM      30.10R
NEW BEDFORD    PTCLDY    73  61  65 S6        30.11R
$$

MAZALL-110100-
CAPE COD AND THE ISLANDS

CITY           SKY/WX    TMP DP  RH WIND       PRES   REMARKS
FALMOUTH       CLOUDY    72  64  78 SE5       30.12R
HYANNIS        MOCLDY    71  60  68 SE3       30.11R
CHATHAM        MOCLDY    68  59  73 CALM      30.13R
NANTUCKET      CLOUDY    66  64  93 S3        30.12R FOG
MARTHAS VNYRD  MOCLDY    68  64  87 S3        30.12R
$$

MAZALL-110100-
CENTRAL AND WESTERN MASSACHUSETTS

CITY           SKY/WX    TMP DP  RH WIND       PRES   REMARKS
WORCESTER      CLEAR     73  57  57 NW3       30.15R
6HR MIN TEMP:  73; 6HR MAX TEMP:  76;

FITCHBURG      CLEAR     76  56  49 SW5       30.13R
ORANGE           N/A    N/A N/A N/A MISG      30.13R
SPRINGFIELD    CLEAR     75  55  49 N3        30.11R
WESTFIELD      LGT RAIN  76  55  48 NW6       30.11R
NORTH ADAMS    PTCLDY    68  59  73 CALM      30.14R
PITTSFIELD     PTCLDY    68  52  56 W5        30.15R
$$

RIZALL-110100-
RHODE ISLAND

CITY           SKY/WX    TMP DP  RH WIND       PRES   REMARKS
PROVIDENCE     MOCLDY    77  64  64 S7        30.11R
6HR MIN TEMP:  77; 6HR MAX TEMP:  82;

NEWPORT        PTCLDY    72  60  66 S6        30.11R
BLOCK ISLAND   MOCLDY    70  61  73 S6        30.11F
SMITHFIELD     PTCLDY    73  59  60 N3        30.14R
WESTERLY       MOCLDY    73  62  68 S3        30.10S
$$

CTZALL-110100-
CONNECTICUT

CITY           SKY/WX    TMP DP  RH WIND       PRES   REMARKS
BRADLEY INTL   MOCLDY    78  57  48 N5        30.10R
6HR MIN TEMP:  78; 6HR MAX TEMP:  84;

HARTFORD       PTCLDY    79  52  38 N7        30.09S
BRIDGEPORT     CLOUDY    77  59  53 CALM      30.10S
DANBURY        PTCLDY    76  56  49 N5        30.13R
GROTON         MOCLDY    70  64  81 CALM      30.10R
NEW HAVEN      MOCLDY    77  63  61 CALM      30.10F
CHESTER        FAIR      73  63  68 CALM      30.12S
MERIDEN        PTCLDY    77  62  59 S7        30.09F
WILLIMANTIC    PTCLDY    78  62  57 N5        30.10S
OXFORD         PTCLDY    75  59  57 NW5       30.14F
$$

MEZ002-015-021-024-NHZ003-005-008-011-012-014-VTZ005-008-110100-
NORTHERN NEW ENGLAND

CITY           SKY/WX    TMP DP  RH WIND       PRES   REMARKS
PORTLAND ME    PTCLDY    75  52  44 SW6       30.09R
6HR MIN TEMP:  75; 6HR MAX TEMP:  80;

BANGOR ME      PTCLDY    71  53  52 NW6       30.09R
CONCORD NH     CLEAR     75  51  43 NW5       30.12R
MANCHESTER NH  PTCLDY    78  50  37 W5        30.10R
NASHUA NH      PTCLDY    77  61  57 CALM      30.12R
PORTSMOUTH NH  PTCLDY    76  58  51 SW2       30.09R
JAFFREY NH     CLEAR     71  54  54 CALM      30.16R
KEENE NH       CLEAR     72  54  53 CALM      30.14R
BURLINGTON VT  PTCLDY    71  49  45 NE6       30.15R
MT. WASHINGTON PTCLDY    45  37  76 W32         N/A
$$

NYZ052-076-110100-
EASTERN NEW YORK

CITY           SKY/WX    TMP DP  RH WIND       PRES   REMARKS
ALBANY         MOCLDY    74  49  41 NW9       30.13R
6HR MIN TEMP:  74; 6HR MAX TEMP:  80;

NEW YORK CITY  CLOUDY    77  60  55 S5        30.10R
6HR MIN TEMP:  77; 6HR MAX TEMP:  82;

$$

ANZALL-110100-
MARINE OBSERVATIONS

STATION/POSITION TIME  TEMP    WIND        PRES    VSBY  WAVE
                       AIR SEA DIR/SP/G                  HT/PER
                 (UTC) (F)     (DEG/KT/KT) (MB)    (MI)  (FT/S)
BOSTON BUOY      NOT AVBL
BUZZARDS BAY     NOT AVBL
NANTUCKET SOUND  NOT AVBL
MASS BAY-STELLWA NOT AVBL
ISLE OF SHOALS   NOT AVBL
S OF BLOCK IS    NOT AVBL
$$

......................KEY.........................
  SKY/WX - SKY CONDITION/PRESENT WEATHER
  TMP    - TEMPERATURE IN FAHRENHEIT
  DWPT   - DEWPOINT IN FAHRENHEIT
  RH     - RELATIVE HUMIDITY IN PERCENT
  WIND   - DIRECTION AND SPEED IN MPH
  PRES   - MEAN SEA LEVEL PRESSURE IN INCHES OF HG
  WCI    - WIND CHILL INDEX
  VSB    - VISIBILITY IN MILES
  HX     - HEAT INDEX
  TC     - TEMPERATURE IN CELSIUS
  VRB    - VARIABLE WIND DIRECTION
  N/A    - NOT AVAILABLE


USA.gov is the U.S. government's official web portal to all federal, state and local government web resources and services.